www.pogodaiklimat.ru

Погода и климат >> Архив погоды >> Россия >> Красноярский край >> Верещагино


ПОГОДА в Верещагино

  • Прогноз погоды в Верещагино
  • Монитор погоды в Верещагино

АРХИВ ПОГОДЫ в Верещагино

Время (UTC), дата Ветер
(напр.,м/с)
 
Видим.   Явления Облачность Т
(С)
Тd
(С)
f
(%)
Тe
(С)
Тes
(С)
Комфортность P
(гПа)
Po
(гПа)
Тmin
(С)
Tmax
(С)
R
(мм)
R24
(мм)
S
(см)
18 16.07 В 1 н/о 1/0
[Ci fib]
+19.4 +16.8 85 +22 +22 комфорт 1011.4 1007.8
21 16.07 В 1 50 км 1/0
[Ci fib]
+17.8 +15.6 87 +19 +19 1011.2 1007.6
00 17.07 В 1 50 км 1/0
[Ci fib]
+16.8 +16.8 100 +18 +20 1011.1 1007.6 +17.6
03 17.07 В 2 50 км 3/0
[Ci fib]
+26.8 +18.0 59 +31 +39 душно 1010.3 1006.9
06 17.07 В 2 50 км 4/4 600 м
[Cu med, cong]
+30.5 +16.7 43 +34 +41 очень
душно
1009.5 1006.1
09 17.07 СВ 3 50 км 4/4 600 м
[Cu med, cong]
+31.8 +16.0 39 +35 +39 очень
душно
1008.1 1004.7
12 17.07 50 км н/о +31.8 +15.6 38 +34 +36 душно 1007.7 1004.3 +32.2
15 17.07 В 1 50 км 1/0
[Ci fib]
+27.1 +18.9 61 +32 +32 очень
душно
1007.7 1004.3
18 17.07 В 1 н/о 1/0
[Ci fib]
+20.8 +18.7 88 +26 +26 душно 1008.0 1004.5
21 17.07 В 1 50 км 3/3 600 м
[Cu med, cong]
+20.8 +16.7 77 +25 +25 комфорт 1008.1 1004.6
00 18.07 В 3 50 км ясно +23.9 +17.8 69 +28 +30 душно 1008.9 1005.4 +20.0
03 18.07 В 3 50 км ясно +26.0 +18.0 61 +30 +37 душно 1009.2 1005.8
06 18.07 В 3 50 км ясно +28.7 +16.6 48 +32 +42 душно 1009.2 1005.8
09 18.07 В 3 50 км ясно +30.7 +16.6 43 +34 +41 очень
душно
1009.3 1005.9
12 18.07 В 2 50 км ясно +29.3 +16.0 45 +32 +35 душно 1008.6 1015.2 +31.4
15 18.07 В 1 50 км ясно +26.1 +16.4 55 +30 +30 душно 1009.1 1005.7
18 18.07 В 2 н/о ясно +21.8 +14.5 63 +25 +25 комфорт 1010.7 1007.2
21 18.07 В 2 50 км ясно +21.9 +14.4 62 +25 +25 комфорт 1011.3 1007.8
00 19.07 В 2 50 км ясно +19.9 +11.6 59 +22 +24 комфорт 1012.6 1009.0 +19.9
03 19.07 В 3 50 км 1/0
[Ci fib]
+22.9 +10.9 47 +25 +31 комфорт 1013.0 1009.5
06 19.07 В 4-10
{11}
50 км 1/0
[Ci fib]
+25.6 +9.2 35 +26 +34 жарко 1013.4 1009.9
09 19.07 В 3
{10}
50 км ясно +26.2 +9.6 35 +27 +34 жарко 1013.7 1010.3
12 19.07 В 2 50 км ясно +26.1 +8.4 33 +26 +29 жарко 1014.3 1010.8 +26.6
15 19.07 В 1 50 км ясно +23.1 +9.7 43 +25 +25 комфорт 1014.9 1011.4
18 19.07 В 2 н/о 1/0
[Ci fib]
+17.4 +7.3 51 +18 +18 1016.7 1013.1
21 19.07 В 2 50 км 1/0
[Ci fib]
+14.4 +6.8 60 +14 +14 1017.4 1013.8
00 20.07 В 2 50 км 1/0
[Ci fib]
+16.4 +7.2 54 +17 +19 1019.0 1015.4 +14.0
03 20.07 В 2 50 км 3/0
[Ci fib]
+21.0 +6.4 39 +23 +30 комфорт 1019.5 1015.9
06 20.07 ЮВ 3 50 км 3/0
[Ci fib]
+23.2 +5.1 31 +23 +32 комфорт 1018.8 1015.3
09 20.07 В 3 50 км 3/0
[Ci fib]
+24.6 +7.8 34 +25 +31 комфорт 1017.6 1014.1
12 20.07 В 1 50 км ясно +25.1 +8.4 35 +26 +28 жарко 1016.8 1013.3 +25.2
15 20.07 В 1 50 км ясно +19.3 +13.3 68 +22 +22 комфорт 1016.9 1013.3
18 20.07 штиль 0 50 км ?/? -0.1 +9.0 100 -2 -2 1017.2 1013.6
21 20.07 штиль 0 50 км 1/0
[Ci fib]
+10.8 +7.3 79 +10 +10 1016.9 1013.2
00 21.07 СВ 1 50 км ясно +14.1 +9.6 74 +14 +17 1016.8 1013.2 +10.2
03 21.07 СВ 1 50 км 1/0
[Ci fib]
+21.5 +11.7 54 +24 +32 комфорт 1016.0 1012.5
06 21.07 В 2 50 км 4/0
[Cs]
+25.2 +8.8 35 +26 +36 жарко 1014.5 1011.0
09 21.07 СВ 2 50 км 3/0
[Cc]
+25.4 +8.9 35 +26 +34 жарко 1013.2 1009.7
12 21.07 В 1 50 км 1/0
[Ci fib]
+25.4 +6.7 30 +25 +28 комфорт 1012.3 1008.8 +26.1
15 21.07 В 1 10 км дым 9/0
[Cs]
+18.6 +14.5 77 +20 +20 1012.2 1008.6
18 21.07 В 2 н/о дым 6/0
[Cs]
+15.2 +9.6 69 +15 +15 1011.8 1008.2
21 21.07 СВ 1 10 км дым 8/0
[Cs]
+11.9 +8.0 77 +12 +12 1010.8 1007.2
00 22.07 СВ 1 27 км дым 4/0
[Cc]
+12.5 +8.3 76 +13 +15 1010.2 1006.6 +9.9
03 22.07 СВ 2 10 км дым 3/0
[Ci fib]
+19.9 +11.4 58 +22 +29 комфорт 1009.1 1005.5
06 22.07 В 2 10 км дым ясно +22.2 +8.4 41 +23 +35 комфорт 1008.1 1004.6
09 22.07 В 2 10 км дым ясно +22.6 +11.4 49 +25 +33 комфорт 1007.1 1003.6
12 22.07 СВ 1 10 км дым ясно +20.8 +12.1 57 +24 +27 комфорт 1007.0 1003.5 +23.7
15 22.07 СВ 1 10 км дым ясно +18.0 +12.6 71 +19 +19 1006.7 1003.2
18 22.07 СВ 1 н/о дым ясно +12.7 +11.0 89 +13 +13 1006.3 1002.7
21 22.07 СВ 1 10 км дым ясно +10.6 +9.0 90 +10 +10 1005.2 1001.5
00 23.07 СВ 1 10 км дым ясно +12.3 +10.2 87 +12 +14 1004.8 1001.2 +9.9
03 23.07 СВ 2 10 км дым ясно +17.7 +12.7 73 +18 +26 1003.1 999.6
06 23.07 СВ 2 10 км дым ясно +20.9 +13.2 61 +24 +35 комфорт 1002.4 998.9
09 23.07 СВ 1 10 км дым ясно +21.9 +14.0 61 +25 +34 комфорт 1002.1 998.6
12 23.07 Ю 1 10 км дым ясно +20.9 +15.0 69 +25 +28 комфорт 1002.4 998.9 +22.2
15 23.07 Ю 1 4000 м дым ясно +17.5 +15.3 87 +19 +19 1002.8 999.3

 

Местоположение метеостанции Верещагино (Красноярский край, Россия): широта 64.23 долгота 87.47 высота над уровнем моря 30 м.

В архиве по умолчанию представлена погода в Верещагино за последнюю неделю. Архивные данные за месяц целиком и за предыдущие месяцы, начиная с января 2011 года, Вы можете получить, выбрав интересующий диапазон дат из раскрывающегося списка и нажав кнопку "Ввод!".


*Определитесь, кто Вы:
робот инопланетянин человек

Внимание! Время в таблицах - всемирное. Для получения местного времени необходимо прибавить поправку, которая равна 7 ч.

Смотрите также архив погоды в соседних городах и на ближайших метеорологических станциях:

Погода в Верхнеимбатске (Красноярский край, Россия) (122 км)
Погода в Туруханске (Красноярский край, Россия) (174 км)
Погода в Большом Пороге (Эвенкия, Россия) (198 км)
Погода в Келлоге (Красноярский край, Россия) (203 км)
Погода в Бахте (Красноярский край, Россия) (210 км)
Погода в Курейке (Красноярский край, Россия) (249 км)
Погода в Тольке (Ямало-Ненецкий АО, Россия) (263 км)
Погода в Красноселькупске (Ямало-Ненецкий АО, Россия) (287 км)
Погода в Тутончанах (Эвенкия, Россия) (305 км)
Погода в Светлогорске (Красноярский край, Россия) (306 км)

Пояснения к столбцам:

Ветер - указаны скорость ветра в м/с - средняя за 10 мин, порывы в срок и между сроками (в фигурных скобках) и направление, откуда дует ветер: С - северный, СВ - северо-восточный, В - восточный, ЮВ - юго-восточный, Ю - южный, ЮЗ - юго-западный, З - западный, СЗ - северо-западный.
Видимость - горизонтальная дальность видимости в метрах или километрах. При видимости от 1 до 10 км при отсутствии осадков обычно наблюдается дымка, при ухудшении видимости до 1 км и менее - туман. В сухую погоду видимость может ухудшаться дымом, пылью или мглою.
Явления - указаны атмосферные явления, наблюдавшиеся в срок или в последний час перед сроком; фигурными скобками обозначены явления, наблюдавшиеся между сроками (за 1-3 часа до срока); квадратными скобками обозначены град или гололедные отложения с указанием их диаметра в мм.
Облачность - указаны через наклонную черту общая и нижняя облачность в баллах и высота нижней границы облаков в метрах; квадратными скобками обозначены формы облаков: Ci - перистые, Cs - перисто-слоистые, Cc - перисто-кучевые, Ac - высококучевые, As - высокослоистые, Sc - слоисто-кучевые, Ns - слоисто-дождевые, Cu - кучевые, Cb - кучево-дождевые. Подробнее классификацию облаков см. в Атласе облаков (PDF).
T - Температура воздуха - температура, измеренная на высоте 2 м над землей.
Td - Температура точки росы - температура, при понижении до которой содержащийся в воздухе водяной пар достигнет насыщения.
f - Относительная влажность воздуха - влажноcть воздуха, измеренная на высоте 2 м над землей.
Te - Эффективная температура - температура, которую ощущает одетый по сезону человек в тени. Характеристика душности погоды. При расчете учитывается влияние влажности воздуха и скорости ветра на теплоощущения человека.
Tes - Эффективная температура на солнце - температура, которую ощущает человек, с поправкой на солнечный нагрев. Характеристика знойности погоды. Зависит от высоты солнца над горизонтом, облачности и скорости ветра. Ночью, в пасмурную погоду, а также при ветре 12 м/с и более поправка равна нулю.
P - Атмосферное давление - приведенное к уровню моря атмосферное давление.
Po - Атмосферное давление - измеренное на уровне метеостанции атмосферное давление.
Tmin - Минимальная температура - минимум температуры воздуха на высоте 2 м над землей.
Tmax - Максимальная температура - максимум температуры воздуха на высоте 2 м над землей.
R - Количество осадков - Количество выпавших осадков за период времени, мм. При наведении курсора мыши на число - период времени, за который выпало указанное количество осадков.
R24 - Количество осадков - Количество выпавших осадков за 24 часа, мм.
S - Снежный покров - Высота снежного покрова, см. При наведении курсора мыши на число - состояние снежного покрова и степень покрытия местности в баллах.